User: anonymous   Login
Location: Gleizolles
(44.4833°N, 6.7667°E)
Time: 12:07:13
(UTC+00:00)
Language:

A-11 Canister half - Orbit

View from above orbital plane
View from above orbital plane
View from above satellite
View from above satellite

Ground track
Ground track

The orbit data is extracted from the following two-line orbital elements,

1 00051U 60009C   24170.92824364 -.00000106  00000-0 -20824-3 0  9991
2 00051  47.2103 142.7701 0106689 192.1356 167.6856 12.18328136842383
Epoch (UTC): 18 June 2024 22:16:40
Eccentricity: 0.0106689
inclination: 47.2103°
perigee height: 1515 km
apogee height: 1685 km
right ascension of ascending node: 142.7701°
argument of perigee: 192.1356°
revolutions per day: 12.18328136
mean anomaly at epoch: 167.6856°
orbit number at epoch: 84238

The dashed part of the orbit path shows where the satellite is in the earth's shadow,  

DLR